Tracking 28348 objects as of 9-Dec-2023
HD Live streaming from Space Station
objects crossing your sky now

COSMOS 469

Track COSMOS 469 now!
10-day predictions
COSMOS 469 is classified as:


NORAD ID: 5721
Int'l Code: 1971-117A
Perigee: 968.0 km
Apogee: 1,002.0 km
Inclination: 64.5 °
Period: 104.6 minutes
Semi major axis: 7355 km
RCS: 2.893 m2 (large)
Launch date: December 25, 1971
Source: Commonwealth of Independent States (former USSR) (CIS)
Launch site: TYURATAM MISSILE AND SPACE COMPLEX (TTMTR)
Your satellite tracking list
Your tracking list is empty




NASA's NSSDC Master Catalog

Two Line Element Set (TLE):
1 05721U 71117A   23342.13007309 -.00000064  00000-0  26629-4 0  9999
2 05721  64.4873 229.6387 0023104 144.1088 216.1521 13.76072825610244
Source of the keplerian elements: AFSPC